Regional Weather Roundup
Issued by NWS

Home | Current Version | Previous Version | Text Only | Print | Product List | Glossary On
Versions: 1 2 3 4 5 6 7 8 9 10 11 12 13 14 15 16 17 18 19 20 21 22 23 24 25 26 27 28 29 30 31 32 33 34 35 36 37 38 39 40 41 42 43 44 45 46 47 48 49 50
000
ASUS42 KFFC 212110
RWRGA
WEATHER ROUNDUP FOR GEORGIA
NATIONAL WEATHER SERVICE PEACHTREE CITY GA
400 PM EST TUE FEB 21 2017

NOTE: "FAIR" INDICATES FEW OR NO CLOUDS BELOW 12,000 FEET WITH NO
SIGNIFICANT WEATHER AND/OR OBSTRUCTIONS TO VISIBILITY.

* = USE WITH CAUTION. THE STATIONS MARKED WITH AN ASTERISK MAY NOT
REPORT WEATHER SUCH AS PRECIPITATION, FOG, OR THUNDER AND ARE NOT
QUALITY CONTROLLED BY NWS.

THE REMARK "TC" DENOTES TEMPERATURE READING IN DEGREES CELSIUS.

GAZ001>058-212200-
NORTH GEORGIA

CITY           SKY/WX    TMP DP  RH WIND       PRES   REMARKS
ATLANTA        LGT RAIN  64  60  87 E7        30.00S
ATHENS         CLOUDY    70  55  59 SE5       30.03S
CHAMBLEE       LGT RAIN  64  56  75 SE7       30.01S
PEACHTREE CITY CLOUDY    68  59  73 E7        29.99F
ROME           RAIN      60  56  86 NW3       30.00R FOG
WEST ATLANTA   CLOUDY    65  57  75 SE6       30.00S
GAINESVILLE    CLOUDY    65  52  62 E10       30.04F
CARTERSVILLE   LGT RAIN  63  58  83 SW6       30.01R


CITY           SKY/WX    TMP DP  RH WIND       PRES   REMARKS
DALTON*        CLOUDY    63  52  67 SE3       30.00S
LAWRENCEVILLE* PTSUNNY   64  54  68 E9        30.03F
MARIETTA       LGT RAIN  63  58  83 S6        30.01R
KENNESAW*      LGT RAIN  64  55  72 SE10G17   30.01R FOG
CANTON*        CLOUDY    64  46  52 E7        30.03R
$$

GAZ059>098-102>109-212200-
CENTRAL GEORGIA

CITY           SKY/WX    TMP DP  RH WIND       PRES   REMARKS
AUGUSTA-BUSH   PTSUNNY   75  57  53 SE10      30.03F
AUGUSTA-DANIEL PTSUNNY   72  54  53 E10       30.05F
COLUMBUS       LGT RAIN  62  59  90 NW9       29.97F FOG
MACON          CLOUDY    71  58  63 SE9       29.99F
ROBINS AFB     PTSUNNY   73  58  59 SE13      29.98F


CITY           SKY/WX    TMP DP  RH WIND       PRES   REMARKS
LAGRANGE*      RAIN      63  63 100 S7        30.01R
SYLVANIA*      PTSUNNY  N/A N/A N/A SE6       30.05R
MILLEDGEVILLE* CLOUDY    72  59  64 SE3       30.01F
$$

GAZ099>101-110>166-212200-
SOUTH GEORGIA

CITY           SKY/WX    TMP DP  RH WIND       PRES   REMARKS
SAVANNAH       CLOUDY    73  60  63 SE14      30.04S
VALDOSTA       PTSUNNY   75  58  55 S9        29.97F
ALMA           CLOUDY    74  58  57 SE8       30.00F
ST SIMONS      CLOUDY    70  62  76 E7        30.01F
FT STEWART     CLOUDY    73  59  61 SE6       30.00S
ALBANY         CLOUDY    73  60  63 SE6       29.97F
HUNTER AFB     CLOUDY    73  65  77 E10       30.01S
MOODY AFB      PTSUNNY   75  57  54 SE8       29.96F
BRUNSWICK      CLOUDY    73  64  73 SE6       30.03S


CITY           SKY/WX    TMP DP  RH WIND       PRES   REMARKS
BAINBRIDGE*    CLOUDY    72  59  64 S8        29.94S
MOULTRIE*      CLOUDY    73  61  64 SE7       29.97F
VIDALIA*       CLOUDY    73  63  68 SE6       30.01F
WAYCROSS*      CLOUDY    78  63  60 SE9       29.99F
DOUGLAS*       CLOUDY    73  55  53 S3        30.01F
$$




USA.gov is the U.S. government's official web portal to all federal, state and local government web resources and services.